Location: M�ounes
(43.2797°N, 5.9701°E)
Time: 15:11:44
(UTC+00:00)

Daily predictions for brighter satellites

Satellite Brightness Start Highest point End
(mag) Time Altitude Azimuth Time Altitude Azimuth Time Altitude Azimuth
Resurs 1-3 3.6 19:45:24 10° SSE 19:49:47 80° ENE 19:54:11 10° N
Cosmos 1125 Rocket 3.6 19:46:22 10° NNW 19:51:39 74° ENE 19:56:54 10° SSE
Cosmos 1300 3.7 19:50:03 10° NNW 19:53:44 47° W 19:57:24 10° SSW
H-2A R/B 4.1 19:50:03 10° SSW 19:54:46 30° W 19:59:30 10° NW
VEP-3 4.3 19:55:51 10° SSW 19:59:01 15° S 20:02:48 10° SE
Cosmos 2322 Rocket 2.3 19:54:39 10° SSW 20:00:15 84° WNW 20:05:55 10° NNE
SPOT 3 Rocket 3.7 19:56:54 10° S 20:02:06 78° WSW 20:07:21 10° NNW
NOSS 7 (D) 3.8 19:59:38 10° SSW 20:02:30 61° SE 20:05:11 10° NE
Cosmos 2237 4.3 19:57:25 10° S 20:03:00 59° ESE 20:08:39 10° NNE
OAO 2 Rocket 4.4 19:59:48 10° SW 20:04:16 28° SSE 20:08:47 10° ESE
Cosmos 1455 2.5 20:09:18 10° N 20:13:03 51° ENE 20:16:46 10° SSE
Cosmos 1461 3.8 20:08:36 10° NW 20:13:12 52° WSW 20:17:47 10° SSE
Cosmos 1825 Rocket 4.2 20:10:55 10° SSE 20:14:59 37° E 20:19:07 10° NNE
ATLAS CENTAUR R/B 3.5 20:16:48 10° N 20:18:51 14° NE 20:20:53 10° ENE
Cosmos 1703 3.6 20:15:54 10° SSE 20:19:34 43° E 20:23:16 10° NNE
COSMOS 2428 3.8 20:15:57 10° SSE 20:20:23 24° ESE 20:24:51 10° NE
Geosat 4.5 20:15:35 10° SSE 20:20:31 58° WSW 20:25:30 10° NW
Cosmos 1812 Rocket 3.6 20:18:59 10° N 20:23:21 84° W 20:27:40 10° S
Cosmos 2322 4.1 20:18:44 10° S 20:24:06 44° ESE 20:29:31 10° NE
Cosmos 1844 4.2 20:19:10 10° NNW 20:24:46 49° ENE 20:29:32 14° SE
Delta 2 Rocket 4.2 20:23:56 10° SW 20:26:38 22° S 20:28:09 16° SE
Cosmos 1602 Rocket 4.2 20:24:00 10° SSW 20:28:20 59° W 20:32:45 10° N
Cosmos 783 Rocket 4.5 20:25:06 10° S 20:30:18 67° ESE 20:35:29 10° NNE
Cosmos 1709 Rocket 4.3 20:24:58 10° SSE 20:31:02 53° E 20:37:11 10° NNE
NOSS 3-3 (A) 4.4 20:27:21 10° S 20:32:33 36° ESE 20:38:15 10° NE
NOSS 3-3 (C) 4.4 20:27:29 10° S 20:32:40 36° ESE 20:38:21 10° NE
Cosmos 2263 Rocket 4.0 20:28:24 10° NW 20:32:54 26° WSW 20:37:23 10° SSW
MetOp-B 4.2 20:27:54 10° SSE 20:33:16 90° ENE 20:38:40 10° NNW
Nadezhda 1 Rocket 4.1 20:27:36 10° N 20:34:03 85° W 20:40:26 10° S
Cosmos 2237 Rocket 4.1 20:33:12 11° ESE 20:34:25 11° E 20:36:12 10° ENE
Atlas Centaur 2 3.5 20:29:50 10° SW 20:34:38 26° S 20:38:47 15° SE
Terra 3.2 20:31:40 13° ESE 20:34:53 24° ENE 20:38:42 10° NNE
Cosmos 2333 4.3 20:30:26 10° S 20:35:51 53° ESE 20:41:23 10° NE
CARTOSAT-1 4.5 20:32:57 16° SE 20:35:54 34° ENE 20:39:49 10° N
Cosmos 2219 Rocket 2.8 20:31:18 10° S 20:36:20 36° ESE 20:41:24 10° NE
Cosmos 2360 Rocket 2.4 20:32:30 10° SSW 20:38:08 79° WNW 20:43:49 10° NNE
IGS 5A 3.4 20:35:34 15° SSE 20:39:00 74° ENE 20:43:09 10° N
IRIS 4.0 20:39:08 10° WSW 20:42:09 48° S 20:43:19 25° ESE
DELTA 2 R/B (1) 4.5 20:38:32 10° SSW 20:43:07 27° SSE 20:47:43 10° E
Cosmos 2333 Rocket 2.5 20:40:39 10° S 20:46:03 47° ESE 20:51:31 10° NE
Resurs 01 Rocket 3.0 20:46:51 10° SSW 20:50:52 34° W 20:54:55 10° NNW
ATLAS 2AS CENTAUR R/B 4.5 20:45:00 10° NNW 20:51:19 27° NNE 20:57:14 10° E
Cosmos 1315 Rocket 3.9 20:48:37 10° N 20:52:17 31° ENE 20:54:13 21° ESE
Cosmos 1818 4.1 20:48:11 10° SW 20:53:33 61° NW 20:58:58 10° NNE
Cosmos-2242 3.0 20:51:32 10° N 20:55:53 85° W 20:59:05 18° S
Cosmos 773 Rocket 4.0 20:50:51 10° S 20:56:07 74° ESE 21:01:25 10° NNE
SL-16 R/B 4.5 20:52:39 10° WSW 20:57:25 27° NW 21:02:14 10° N
ERS-1 Rocket 3.0 20:56:51 21° SSE 21:00:15 67° ENE 21:05:16 10° N
Cosmos 2221 4.0 20:57:09 10° NNE 21:00:44 24° ENE 21:02:29 19° ESE
GEOS 3 Rocket 3.9 20:59:17 10° NNE 21:04:40 73° NW 21:10:02 10° SW
USA 215 3.2 21:01:28 10° NE 21:08:02 74° SE 21:14:34 10° SW
Cosmos 2278 Rocket 3.4 21:04:34 10° N 21:09:36 31° NE 21:13:09 17° ESE
ATLAS 5 CENTAUR R/B 2.7 21:06:26 10° WSW 21:10:23 44° NW 21:14:50 10° NNE
USA 245 4.1 21:08:35 18° SSW 21:10:40 39° W 21:14:24 10° NNW
Meteor 1-11 4.2 21:05:32 12° S 21:10:43 85° E 21:16:26 10° NNE
Cosmos 1844 Rocket 3.1 21:09:06 10° NNW 21:14:33 56° WSW 21:18:16 20° S
Cosmos 1400 Rocket 3.5 21:11:20 10° NNW 21:15:11 48° W 21:17:41 19° SSW
SPOT 5 2.9 21:13:57 25° SSE 21:16:57 83° ENE 21:21:49 10° NNW
Lacrosse 5 rocket 4.5 21:18:08 10° NNW 21:19:53 12° N 21:21:35 10° NNE
Spot 2 Rocket 4.5 21:16:44 13° SSW 21:20:53 42° W 21:25:44 10° NNW
OAO 3 Rocket 4.5 21:19:37 10° WSW 21:23:28 23° SSW 21:23:58 23° S
USA 81 4.0 21:19:52 19° S 21:23:39 88° W 21:28:58 10° N
Cosmos 2058 4.0 21:25:00 27° ESE 21:25:38 28° E 21:29:12 10° NNE
BREEZE M DEB (TANK) 1.7 21:25:37 10° WNW 21:27:39 63° W 21:27:39 63° W
Cosmos 2181 Rocket 4.0 21:23:51 10° N 21:30:13 82° W 21:34:15 24° S
Cosmos 2074 Rocket 4.1 21:29:15 26° SSE 21:32:48 62° E 21:38:55 10° NNE
SPOT 1/Viking Rocket 4.5 21:31:52 17° SSW 21:35:29 41° W 21:40:23 10° NNW
Cosmos 1076 Rocket 4.3 21:36:08 32° ESE 21:36:48 34° E 21:40:41 10° NNE
Cosmos 1680 Rocket 4.2 21:35:41 31° SE 21:37:02 36° ESE 21:41:52 10° NE
USA 267 3.7 21:34:04 15° ESE 21:39:30 57° NNE 21:45:54 10° NW
Cosmos 2084 3.4 21:42:16 10° NW 21:46:45 85° NE 21:48:05 45° SE
Cosmos 1842 Rocket 3.4 21:43:20 10° N 21:47:42 89° ESE 21:49:02 44° S
OAO 2 Rocket 4.1 21:43:44 10° WSW 21:48:28 33° S 21:48:29 33° S
JB-3 4.1 21:45:21 10° NNE 21:49:12 74° ESE 21:49:57 54° SSE
MTI 3.5 21:50:03 10° N 21:53:08 84° WNW 21:53:10 84° W
Cosmos 923 Rocket 3.9 21:52:20 36° S 21:54:27 68° ESE 21:59:43 10° NNE
Cosmos 1825 3.6 21:58:09 25° E 21:58:09 25° E 22:00:56 10° NE
ATLAS CENTAUR R/B 1.0 21:54:31 10° NW 21:58:09 65° WSW 21:58:26 62° SSW
Cosmos 1980 3.7 21:56:55 35° S 21:59:15 65° ESE 22:04:51 10° NNE
ALOS 2 4.4 21:58:03 17° E 21:59:20 19° ENE 22:02:27 10° NNE
Cosmos 967 Rocket 4.5 21:55:33 13° SSW 22:01:29 88° ESE 22:08:00 10° NNE
COSMOS 2428 3.5 21:58:47 10° SW 22:04:17 51° WNW 22:09:50 10° NNE
Cosmos 1869 3.5 22:04:40 10° NNW 22:08:37 62° W 22:09:23 50° SW
NOSS 0 Rocket 3.9 22:07:31 23° SSW 22:11:36 87° WNW 22:17:49 10° NNE
Terra 2.8 22:10:34 28° SW 22:12:24 39° W 22:16:52 10° NNW
Cosmos 1610 Rocket 4.5 22:11:20 36° S 22:14:10 83° E 22:20:33 10° N
NOSS 3-4 (A) 4.1 22:08:29 10° NNW 22:15:27 64° NE 22:19:47 27° ESE
NOSS 3-4 (C) 4.1 22:08:36 10° NNW 22:15:33 63° NE 22:19:55 27° ESE
Cosmos 2237 Rocket 2.1 22:14:58 35° SSW 22:17:31 84° ESE 22:23:15 10° NNE
Genesis I 3.2 22:18:36 66° E 22:18:36 66° E 22:22:12 10° NE
Cosmos 2344 3.5 22:16:02 28° S 22:20:07 63° ESE 22:27:49 10° NE
Cosmos 2219 Rocket 3.6 22:15:11 10° WSW 22:20:15 35° NW 22:25:23 10° N
Elektron 1 4.3 22:21:21 55° WSW 22:21:57 72° NW 22:26:44 10° NE
BREEZE-M R/B 4.1 22:13:51 10° WNW 22:22:30 47° SW 22:23:36 41° SSW
Atlas Centaur 2 4.0 22:18:00 10° WSW 22:21:21 21° SSW 22:21:21 21° SSW
DELTA 2 R/B (1) 3.6 22:23:32 10° WSW 22:28:57 53° S 22:30:03 46° SE
Cosmos 2333 Rocket 4.0 22:25:39 10° WSW 22:30:32 29° NW 22:35:29 10° N
Thor Agena Rocket 3.4 22:26:49 10° NNE 22:31:57 87° ESE 22:33:18 50° SSW
Cosmos 2221 3.9 22:34:28 10° NNW 22:38:18 30° W 22:39:20 27° WSW
BREEZE-M DEB (TANK) 2.9 22:37:50 10° WNW 22:41:14 35° N 22:41:22 35° NNE
Iridium 2 3.8 22:38:42 10° N 22:42:26 70° W 22:42:26 70° W
Cosmos 1892 4.0 22:41:59 30° W 22:42:41 33° WNW 22:46:09 10° N
Cosmos 1371 Rocket 3.9 22:37:49 10° NNW 22:43:06 84° ENE 22:44:15 56° SSE
ATLAS 2AS CENTAUR R/B 2.8 22:35:53 10° NW 22:43:29 83° NE 22:46:25 39° SE
Cosmos 1766 Rocket 3.8 22:44:24 51° E 22:44:24 51° E 22:48:41 10° NNE
EO 1 Del DPAF 3.3 22:41:13 10° N 22:44:59 69° WNW 22:44:59 69° WNW
MOS 1-B Rocket 4.3 22:39:19 10° NNE 22:47:00 87° WNW 22:49:57 37° SSW
Okean 3 Rocket 3.6 22:47:03 65° ESE 22:47:12 65° E 22:51:37 10° NNE
Aureole 2 Rocket 3.9 22:47:20 10° N 22:48:59 27° NNE 22:48:59 27° NNE
Cosmos 1328 Rocket 4.2 22:46:06 10° N 22:50:12 41° ENE 22:50:25 41° E
Cosmos 2112 Rocket 4.4 22:48:24 35° SW 22:50:33 61° WNW 22:55:53 10° NNE
USA 215 4.4 22:44:40 10° NE 22:50:47 43° NNW 22:56:53 10° W
Cosmos 1606 3.2 22:48:45 10° N 22:52:19 53° ENE 22:52:19 53° ENE
Cosmos 2218 Rocket 4.3 22:50:54 43° SE 22:52:37 56° E 22:58:46 10° NNE
Cosmos 2278 Rocket 2.8 22:48:28 10° NW 22:53:47 42° WSW 22:54:59 37° SW
Cosmos 2297 4.0 22:49:42 10° NNW 22:55:23 59° ENE 22:57:11 41° ESE
Cosmos 2366 rocket 4.2 22:56:35 45° SE 22:58:17 59° E 23:04:31 10° NNE
Cosmos 1420 Rocket 4.4 22:54:06 10° NNW 22:59:17 54° ENE 23:00:36 43° ESE
Spot 4 4.1 22:59:07 50° SW 22:59:44 54° W 23:04:26 10° NNW
Lacrosse 5 rocket 4.1 22:58:05 10° NNW 23:00:32 15° NNE 23:02:54 10° NE
SL-16 R/B 2.1 23:00:46 56° S 23:01:51 71° ESE 23:07:31 10° NNE
Cosmos 1943 Rocket 3.5 22:56:45 10° N 23:01:53 33° NE 23:04:40 22° ESE
Cosmos 1408 4.1 23:03:24 28° W 23:03:31 28° WNW 23:06:40 10° NNW
Cosmos 2056 Rocket 3.5 23:01:39 10° NNW 23:07:03 71° WSW 23:07:58 58° SSW
Cosmos 1959 Rocket 4.4 23:06:20 50° SSE 23:07:54 71° E 23:14:04 10° NNE
Cosmos 2341 Rocket 4.2 23:11:47 41° SW 23:13:56 65° W 23:20:08 10° N
Cosmos 332 Rocket 4.2 23:15:57 10° N 23:20:39 51° ENE 23:21:28 46° E
Meteor 2-3 Rocket 3.7 23:21:02 58° SSE 23:22:05 74° E 23:27:47 10° NNE
USA 267 3.5 23:21:24 44° SSW 23:22:33 49° SW 23:28:53 10° WNW
IRIDIUM 104 4.3 23:23:26 62° SSW 23:24:17 77° W 23:29:32 10° N
Cosmos 2151 4.0 23:23:52 34° W 23:24:24 35° WNW 23:28:22 10° N
Helios 1A 3.1 23:24:53 66° ENE 23:24:53 66° ENE 23:29:02 10° N
Cosmos 405 4.3 23:26:21 10° N 23:29:08 35° NE 23:29:08 35° NE
SL-8 Rocket 4.2 23:30:58 43° SW 23:32:54 62° W 23:39:02 10° N
Cosmos 1825 4.1 23:32:56 21° W 23:33:14 21° WNW 23:36:12 10° NNW
IRIDIUM 114 4.5 23:32:35 54° SW 23:33:28 63° W 23:38:40 10° N
Cosmos 1340 3.1 23:34:23 58° NNW 23:34:23 58° NNW 23:37:38 10° N
Meteor 1-26 Rocket 4.3 23:27:54 10° N 23:33:57 85° E 23:35:20 56° SSE
Cosmos 1452 Rocket 3.5 23:28:51 10° NNW 23:34:08 73° ENE 23:35:06 57° SE
CZ-4C R/B 4.0 23:28:07 10° NNW 23:34:44 40° NE 23:42:16 10° ESE
ALOS 2 3.3 23:35:27 43° W 23:35:27 43° W 23:39:33 10° NNW
COSMOS 2455 3.2 23:29:55 10° NNW 23:35:55 61° NE 23:38:24 35° ESE
Cosmos 1408 Rocket 3.5 23:35:56 74° W 23:35:59 74° W 23:40:23 10° N
PSLV R/B 4.4 23:32:52 10° NNE 23:36:34 38° E 23:36:34 38° E
Cosmos 1603 4.4 23:36:25 37° ESE 23:36:56 37° ESE 23:42:08 10° NE
Cosmos 1933 3.8 23:34:41 10° NNW 23:38:13 52° WNW 23:38:13 52° WNW
Cosmos 1151 Rocket 3.4 23:35:59 10° NNW 23:40:03 51° W 23:40:03 51° W
Cosmos 44 4.0 23:43:38 34° W 23:44:43 41° NW 23:48:56 10° NNE
Cosmos 1500 Rocket 3.6 23:44:49 67° E 23:44:49 67° E 23:49:09 10° NNE
Cosmos 1727 Rocket 3.9 23:40:08 10° N 23:46:24 87° W 23:48:04 52° S
Cosmos 2369 Rocket 2.8 23:41:06 10° NNW 23:46:34 50° ENE 23:48:49 32° ESE
Resurs 1-4 Rocket 4.4 23:45:04 10° ENE 23:47:08 12° E 23:48:44 11° ESE
GP-B 4.1 23:44:26 10° NNW 23:48:29 35° W 23:48:50 34° W
SL-08 R/B 4.5 23:46:43 51° S 23:48:33 88° W 23:55:01 10° N
Cosmos 371 Rocket 3.4 23:45:33 10° NNW 23:50:20 60° WSW 23:50:25 60° WSW
SeaSat 1 4.2 23:47:50 10° ENE 23:51:19 19° ESE 23:51:21 19° ESE
Helios 1B rocket 2.9 23:51:38 10° NNE 23:55:23 50° E 23:55:23 50° E
